Location: 22
(39.7117°N, 89.5929°W)
Time: 02:57:48
(UTC-05:00)

A-11 Canister half - Pass Details

Date: 11 June 2023
Orbit: 1524 x 1684 km, 47.3° (Epoch: 30 September)

Event Time Altitude Azimuth Distance (km) Brightness Sun altitude
Rises 23:17:21 0° 285° (WNW) 4,673 12.1 -22.9°
Reaches altitude 10° 23:20:29 10° 290° (WNW) 3,692 11.6 -23.1°
Maximum altitude 23:29:36 56° 8° (N) 1,785 9.5 -23.8°
Drops below altitude 10° 23:38:53 10° 85° (E) 3,762 10.9 -24.5°
Sets 23:42:07 0° 90° (E) 4,767 11.4 -24.7°
